• In Lithuania
  • List of Countries
  • For 7 days
  • Water Temperature
  • Satellite Maps
  • Weather Map
  • Weather Widgets
  • user-avatar
    Login

    Hourly Weather Pocatello

    Today, 12 December, Tuesday

    Time Temperature Precipitation Wind Pressure Humidity
    00:00 -3°C° 0 mm 1 mps 643 mmHg 34%
    01:00 -3°C° 0 mm 1 mps 643 mmHg 35%
    02:00 -3°C° 0 mm 1 mps 643 mmHg 36%
    03:00 -3°C° 0 mm 1 mps 643 mmHg 36%
    04:00 -3°C° 0 mm 1 mps 643 mmHg 37%
    05:00 -6°C° 0 mm 1 mps 643 mmHg 40%
    06:00 -6°C° 0 mm 1 mps 643 mmHg 40%
    07:00 -6°C° 0 mm 1 mps 643 mmHg 39%
    08:00 -6°C° 0 mm 1 mps 642 mmHg 39%
    09:00 -3°C° 0 mm 1 mps 643 mmHg 41%
    10:00 -1°C° 0 mm 1 mps 643 mmHg 42%
    11:00 +1°C° 0 mm 1 mps 643 mmHg 44%
    12:00 +2°C° 0 mm 1 mps 643 mmHg 45%
    13:00 +2°C° 0 mm 1 mps 642 mmHg 46%
    14:00 +3°C° 0 mm 1 mps 642 mmHg 47%
    15:00 +1°C° 0 mm 1 mps 641 mmHg 48%
    16:00 0°C° 0 mm 1 mps 641 mmHg 49%
    17:00 -2°C° 0 mm 1 mps 640 mmHg 50%
    18:00 -2°C° 0 mm 1 mps 640 mmHg 50%
    19:00 -2°C° 0 mm 1 mps 640 mmHg 50%
    20:00 -3°C° 0 mm 1 mps 640 mmHg 50%
    21:00 -3°C° 0 mm 1 mps 639 mmHg 50%
    22:00 -3°C° 0 mm 1 mps 639 mmHg 50%
    23:00 -4°C° 0 mm 1 mps 639 mmHg 50%

    Tomorrow, 13 December, Wednesday

    Time Temperature Precipitation Wind Pressure Humidity
    00:00 -3°C° 0 mm 1 mps 639 mmHg 49%
    01:00 -3°C° 0 mm 1 mps 639 mmHg 48%
    02:00 -3°C° 0 mm 1 mps 639 mmHg 47%
    03:00 -3°C° 0 mm 1 mps 638 mmHg 47%
    04:00 -3°C° 0 mm 1 mps 638 mmHg 47%
    05:00 -4°C° 0 mm 1 mps 638 mmHg 47%
    06:00 -4°C° 0 mm 1 mps 638 mmHg 46%
    07:00 -4°C° 0 mm 1 mps 638 mmHg 46%
    08:00 -4°C° 0 mm 1 mps 638 mmHg 46%
    09:00 -2°C° 0 mm 1 mps 638 mmHg 46%
    10:00 -1°C° 0 mm 1 mps 638 mmHg 46%
    11:00 0°C° 0 mm 1 mps 638 mmHg 47%
    12:00 +1°C° 0 mm 1 mps 638 mmHg 48%
    13:00 +1°C° 0 mm 1 mps 638 mmHg 50%
    14:00 -1°C° 0 mm 2 mps 637 mmHg 51%
    15:00 -2°C° 0 mm 2 mps 637 mmHg 56%
    16:00 -1°C° 0 mm 1 mps 637 mmHg 60%
    17:00 -2°C° 0 mm 1 mps 636 mmHg 64%
    18:00 -3°C° 0 mm 1 mps 637 mmHg 65%
    19:00 -3°C° 0 mm 1 mps 637 mmHg 66%
    20:00 -4°C° 0 mm 1 mps 637 mmHg 66%
    21:00 -4°C° 0 mm 1 mps 638 mmHg 69%
    22:00 -4°C° 0 mm 1 mps 638 mmHg 71%
    23:00 -4°C° 0 mm 1 mps 639 mmHg 74%

    Day after tomorrow, 14 December, Thursday

    Time Temperature Precipitation Wind Pressure Humidity
    00:00 -4°C° 0 mm 1 mps 639 mmHg 77%
    01:00 -4°C° 0 mm 1 mps 639 mmHg 80%
    02:00 -6°C° 0 mm 1 mps 640 mmHg 84%
    03:00 -6°C° 0 mm 1 mps 640 mmHg 84%
    04:00 -6°C° 0 mm 1 mps 640 mmHg 85%
    05:00 -6°C° 0 mm 1 mps 640 mmHg 85%
    06:00 -6°C° 0 mm 1 mps 640 mmHg 85%
    07:00 -6°C° 0 mm 1 mps 641 mmHg 85%
    08:00 -6°C° 0 mm 1 mps 641 mmHg 85%
    09:00 -4°C° 0 mm 1 mps 641 mmHg 80%
    10:00 -2°C° 0 mm 1 mps 642 mmHg 76%
    11:00 -1°C° 0 mm 1 mps 642 mmHg 72%
    12:00 0°C° 0 mm 1 mps 642 mmHg 70%
    13:00 +1°C° 0 mm 1 mps 641 mmHg 69%
    14:00 +2°C° 0 mm 1 mps 641 mmHg 67%
    15:00 0°C° 0 mm 1 mps 641 mmHg 71%
    16:00 -1°C° 0 mm 1 mps 640 mmHg 74%
    17:00 -2°C° 0 mm 1 mps 640 mmHg 77%
    18:00 -2°C° 0 mm 1 mps 640 mmHg 76%
    19:00 -2°C° 0 mm 1 mps 640 mmHg 75%
    20:00 -2°C° 0 mm 1 mps 641 mmHg 73%
    21:00 -2°C° 0 mm 1 mps 641 mmHg 73%
    22:00 -5°C° 0 mm 2 mps 641 mmHg 73%
    23:00 -5°C° 0 mm 2 mps 640 mmHg 73%

    15 December, Friday

    Time Temperature Precipitation Wind Pressure Humidity
    00:00 -5°C° 0 mm 2 mps 640 mmHg 74%
    01:00 -5°C° 0 mm 2 mps 640 mmHg 75%
    02:00 -5°C° 0 mm 2 mps 640 mmHg 76%
    03:00 -5°C° 0 mm 2 mps 639 mmHg 77%
    04:00 -6°C° 0 mm 2 mps 639 mmHg 78%
    05:00 -6°C° 0 mm 2 mps 639 mmHg 80%
    06:00 -6°C° 0 mm 2 mps 639 mmHg 80%
    07:00 -6°C° 0 mm 2 mps 638 mmHg 81%
    08:00 -7°C° 0 mm 3 mps 638 mmHg 82%
    09:00 -5°C° 0 mm 3 mps 638 mmHg 78%
    10:00 -4°C° 0 mm 3 mps 638 mmHg 73%
    11:00 -1°C° 0 mm 3 mps 638 mmHg 69%
    12:00 -1°C° 0 mm 3 mps 638 mmHg 67%
    13:00 0°C° 0 mm 3 mps 637 mmHg 65%
    14:00 +1°C° 0 mm 3 mps 636 mmHg 62%
    15:00 0°C° 0 mm 3 mps 636 mmHg 65%
    16:00 -1°C° 0 mm 3 mps 635 mmHg 67%
    17:00 -2°C° 0 mm 3 mps 634 mmHg 69%
    18:00 -2°C° 0 mm 3 mps 634 mmHg 68%
    19:00 -2°C° 0 mm 3 mps 634 mmHg 67%
    20:00 -2°C° 0 mm 3 mps 634 mmHg 66%
    21:00 -2°C° 0.1 mm 3 mps 634 mmHg 69%
    22:00 -2°C° 0.1 mm 3 mps 634 mmHg 72%
    23:00 -2°C° 0.1 mm 3 mps 633 mmHg 74%

    16 December, Saturday

    Time Temperature Precipitation Wind Pressure Humidity
    00:00 -4°C° 0.1 mm 3 mps 633 mmHg 78%
    01:00 -4°C° 0.1 mm 3 mps 633 mmHg 81%
    02:00 -5°C° 0.1 mm 3 mps 633 mmHg 84%
    03:00 -5°C° 0 mm 3 mps 633 mmHg 86%
    04:00 -5°C° 0 mm 2 mps 633 mmHg 88%
    05:00 -5°C° 0 mm 2 mps 633 mmHg 90%
    06:00 -5°C° 0 mm 2 mps 633 mmHg 91%
    07:00 -5°C° 0 mm 2 mps 634 mmHg 92%
    08:00 -6°C° 0 mm 2 mps 634 mmHg 93%
    09:00 -6°C° 0 mm 3 mps 634 mmHg 89%
    10:00 -5°C° 0 mm 3 mps 635 mmHg 86%
    11:00 -4°C° 0 mm 3 mps 635 mmHg 82%
    12:00 -2°C° 0 mm 3 mps 635 mmHg 79%
    13:00 -2°C° 0 mm 3 mps 634 mmHg 76%
    14:00 -2°C° 0 mm 3 mps 634 mmHg 74%
    15:00 -2°C° 0 mm 3 mps 634 mmHg 76%
    16:00 -3°C° 0 mm 2 mps 634 mmHg 78%
    17:00 -4°C° 0 mm 2 mps 634 mmHg 80%
    18:00 -4°C° 0 mm 2 mps 634 mmHg 81%
    19:00 -4°C° 0 mm 2 mps 635 mmHg 82%
    20:00 -5°C° 0 mm 2 mps 635 mmHg 83%
    21:00 -3°C° 0 mm 1 mps 635 mmHg 84%
    22:00 -4°C° 0 mm 1 mps 636 mmHg 85%
    23:00 -6°C° 0 mm 1 mps 636 mmHg 86%

    17 December, Sunday

    Time Temperature Precipitation Wind Pressure Humidity
    00:00 -6°C° 0 mm 1 mps 636 mmHg 87%
    01:00 -6°C° 0 mm 1 mps 636 mmHg 88%
    02:00 -6°C° 0 mm 1 mps 636 mmHg 90%
    03:00 -7°C° 0 mm 1 mps 636 mmHg 90%
    04:00 -7°C° 0 mm 1 mps 636 mmHg 91%
    05:00 -7°C° 0 mm 1 mps 637 mmHg 91%
    06:00 -7°C° 0 mm 1 mps 637 mmHg 91%
    07:00 -7°C° 0 mm 1 mps 637 mmHg 90%
    08:00 -7°C° 0 mm 1 mps 637 mmHg 90%
    09:00 -6°C° 0 mm 1 mps 637 mmHg 85%
    10:00 -4°C° 0 mm 1 mps 638 mmHg 81%
    11:00 -2°C° 0 mm 1 mps 638 mmHg 76%
    12:00 -2°C° 0 mm 1 mps 638 mmHg 73%
    13:00 -1°C° 0 mm 1 mps 638 mmHg 70%
    14:00 0°C° 0 mm 1 mps 637 mmHg 67%
    15:00 -1°C° 0 mm 1 mps 637 mmHg 71%
    16:00 -2°C° 0 mm 1 mps 637 mmHg 74%
    17:00 -3°C° 0 mm 1 mps 637 mmHg 78%
    18:00 -3°C° 0 mm 1 mps 637 mmHg 78%
    19:00 -4°C° 0 mm 1 mps 637 mmHg 79%
    20:00 -6°C° 0 mm 2 mps 637 mmHg 79%
    21:00 -6°C° 0 mm 2 mps 637 mmHg 80%
    22:00 -6°C° 0 mm 2 mps 637 mmHg 81%
    23:00 -6°C° 0 mm 2 mps 637 mmHg 81%
    Show more